Вернуться в каталог

ARIANE 3 R/B

АктивенHEO
NORAD 15388·ROCKET BODY·🇫🇷 France

Запущен Nov 10, 1984 с Guiana Space Centre

Loading…

Ближайшие Пролёты (ближайшие 24 часа)

TLE

СвежийSource: Space-Track

Эпоха: Sep 14, 2026, 11:51 UTC

1 15388U 84114C   26257.49441545  .00001310  00000-0  14382-2 0  9996
2 15388   7.2845  53.8919 6870525 326.7630   4.6029  2.76095584307588

Отслеживайте ARIANE 3 R/B в реальном времени с AllMySat

Download on the App Store